User: anonymous   Login
Location: American Medical Response
(33.3472°N, 96.5511°W)
Time: 04:45:53
(UTC+00:00)
Language:

Cosmos 44 - Orbit

View from above orbital plane
View from above orbital plane
View from above satellite
View from above satellite

Ground track
Ground track

The orbit data is extracted from the following two-line orbital elements,

1   876U 64053A   22148.85797795  .00000142  00000-0  47602-4 0  9993
2   876  65.0622  13.1580 0124278 127.3516 233.8984 14.63902806 72376
Epoch (UTC): 28 May 2022 20:35:29
Eccentricity: 0.0124278
inclination: 65.0622°
perigee height: 593 km
apogee height: 768 km
right ascension of ascending node: 13.1580°
argument of perigee: 127.3516°
revolutions per day: 14.63902806
mean anomaly at epoch: 233.8984°
orbit number at epoch: 7237

The dashed part of the orbit path shows where the satellite is in the earth's shadow,  

DLR